Location: Kumla
(59.1265°N, 15.1401°E)
Time: 13:26:10
(UTC+01:00)

Vanguard 3 - Pass Details

Date: 08 December 2023
Orbit: 508 x 3239 km, 33.4° (Epoch: 03 March)

Event Time Altitude Azimuth Distance (km) Brightness Sun altitude
Rises 22:48:53 0° 236° (SW) 5,861 11.5 -52.0°
Enters shadow 22:49:23 - 235° (SW) 5,734 11.4 -52.0°
Reaches altitude 10° 22:56:33 10° 210° (SSW) 4,079 - -52.3°
Maximum altitude 22:59:42 12° 193° (SSW) 3,588 - -52.5°
Drops below altitude 10° 23:02:27 10° 174° (S) 3,408 - -52.6°
Sets 23:07:15 0° 143° (SE) 3,802 - -52.8°
